Location: Decatur Area Astronomy Club
(40.0275°N, 88.7810°W)
Time: 11:44:48
(UTC-05:00)

Daily predictions for brighter satellites

Satellite Brightness Start Highest point End
(mag) Time Altitude Azimuth Time Altitude Azimuth Time Altitude Azimuth
HJ-1C 3.7 19:56:54 10° S 20:00:09 70° WSW 20:03:27 10° NNW
Meteor 1-28 Rocket 4.4 19:56:45 10° N 20:00:27 50° WNW 20:04:08 10° SSW
Cosmos 1777 Rocket 4.1 19:57:46 10° NNW 20:03:01 64° ENE 20:08:13 10° SSE
Delta 2 Rocket 4.4 20:03:26 10° W 20:08:59 52° S 20:14:04 10° ESE
Cosmos 1346 Rocket 3.3 20:06:51 10° N 20:10:34 39° ENE 20:14:18 10° SSE
Cosmos 1544 Rocket 3.6 20:07:43 10° S 20:12:02 64° E 20:16:24 10° NNE
Cosmos 1536 3.3 20:08:28 10° SSW 20:12:27 67° W 20:16:27 10° N
Cosmos 2227 Rocket 2.7 20:07:14 10° N 20:12:36 41° ENE 20:17:54 10° SE
Tiangong 1 1.5 20:09:40 10° W 20:12:44 59° N 20:15:46 10° ENE
OTV 4 0.7 20:11:08 10° W 20:14:03 55° S 20:16:45 12° ESE
USA 186 2.3 20:11:12 10° SE 20:14:04 34° ENE 20:16:48 10° N
FENGYUN 3A 3.7 20:09:25 10° SSE 20:14:42 64° ENE 20:20:00 10° N
EP 2 4.5 20:13:26 10° SW 20:16:01 74° NW 20:18:46 10° NNE
Cosmos 2208 Rocket 4.1 20:12:03 10° S 20:17:14 58° ESE 20:22:32 10° NNE
NOSS 3-4 (A) 3.9 20:13:10 10° NNW 20:20:12 71° NE 20:27:37 10° SE
NOSS 3-4 (C) 3.9 20:13:17 10° NNW 20:20:19 70° NE 20:27:44 10° SE
BREEZE-M TANK 4.4 20:02:20 10° W 20:20:40 63° N 20:24:50 10° E
Meteor 1-5 Rocket 4.1 20:15:44 10° S 20:21:00 69° E 20:26:25 10° NNE
Cosmos 2082 4.0 20:20:37 10° NNW 20:26:05 49° ENE 20:31:16 11° SE
Cosmos 2297 Rocket 2.8 20:22:57 10° N 20:28:15 40° ENE 20:32:48 14° SE
CZ-4 DEB 4.0 20:26:40 15° ESE 20:28:27 24° ENE 20:31:02 10° NNE
Cosmos 1570 Rocket 4.0 20:29:05 10° SSW 20:34:23 90° WNW 20:39:42 10° NNE
Envisat 3.9 20:34:14 15° ESE 20:37:38 30° ENE 20:42:01 10° N
Cosmos 1821 Rocket 4.3 20:32:11 10° SSW 20:38:16 69° W 20:44:21 10° N
Cosmos 1605 Rocket 4.0 20:34:51 10° S 20:41:11 73° E 20:47:27 10° N
OAO 2 Rocket 3.9 20:40:58 10° SW 20:45:37 39° SSE 20:48:32 21° ESE
Iridium 4 Rocket 3.4 20:47:48 10° N 20:52:54 58° E 20:56:49 14° SSE
Cosmos 1743 4.2 20:53:16 20° E 20:53:16 20° E 20:55:51 10° NE
YAOGAN 11 4.2 20:50:16 16° SSE 20:53:44 62° ENE 20:58:11 10° N
NOSS 7 (H) 4.2 20:51:52 10° SSW 20:55:09 90° SW 20:58:32 10° NE
DELTA 2 R/B (1) 3.5 20:51:23 10° W 20:56:58 81° S 21:00:24 24° ESE
Cosmos 1975 2.7 20:53:13 10° S 20:57:17 73° E 21:01:24 10° NNE
Cosmos 1697 Rocket 2.8 21:00:52 10° S 21:06:16 48° ESE 21:11:41 10° NE
H-2A R/B 2.6 21:06:31 32° ESE 21:07:28 37° ENE 21:11:17 10° N
Lacrosse 5 rocket 1.0 21:04:42 10° NW 21:08:25 72° NE 21:09:24 45° ESE
Cosmos 2278 4.3 21:03:06 10° SW 21:08:42 59° WNW 21:14:21 10° NNE
ALOS 4.0 21:06:25 10° SSW 21:10:35 32° W 21:14:47 10° NNW
ERS-1 Rocket 2.9 21:07:44 20° SSE 21:11:17 83° ENE 21:16:20 10° NNW
Cosmos 1626 Rocket 3.6 21:08:01 10° N 21:12:26 77° W 21:15:36 18° S
deb Chang Zheng 4 3.8 21:12:31 10° NNE 21:16:52 50° E 21:18:17 36° SSE
Cosmos 1898 Rocket 3.6 21:11:44 10° NNW 21:17:00 62° ENE 21:19:07 35° SE
Cosmos 1461 3.6 21:15:37 10° NW 21:19:30 46° WSW 21:21:13 27° S
Cosmos 1602 Rocket 4.0 21:16:25 10° NNW 21:20:50 62° W 21:24:04 18° S
Nimbus 7 Rocket 4.5 21:17:02 10° NNE 21:23:01 59° ESE 21:27:55 16° S
Cosmos 1763 Rocket 4.3 21:24:18 30° E 21:24:18 30° E 21:27:53 10° NE
Cosmos 1459 Rocket 3.9 21:21:24 19° S 21:25:51 65° E 21:31:52 10° NNE
Cosmos 1980 Rocket 2.4 21:26:51 36° SE 21:28:23 44° ESE 21:33:46 10° NE
SL-24 R/B - RUBIN 2 4.4 21:22:37 10° SSW 21:28:26 85° WNW 21:34:58 10° NNE
Cosmos 1939 Rocket 3.0 21:27:38 36° S 21:29:15 73° W 21:33:24 10° NNW
ARGOS 3.9 21:30:52 33° E 21:31:33 34° ENE 21:36:21 10° N
Cosmos 468 Rocket 3.9 21:30:32 10° SSW 21:35:40 88° WNW 21:40:50 10° NNE
Lacrosse 5 2.2 21:33:30 10° NW 21:38:28 51° NE 21:39:26 45° ENE
Cosmos 2084 3.2 21:38:08 10° NNW 21:42:14 84° NE 21:42:21 82° E
SPOT 5 2.8 21:41:21 53° SSE 21:42:33 79° ENE 21:47:27 10° N
Cosmos 2058 Rocket 4.3 21:44:37 29° NE 21:44:37 29° NE 21:47:19 10° NNE
Cosmos 1814 Rocket 4.0 21:38:31 10° SSW 21:43:51 89° WNW 21:49:12 10° NNE
Cosmos 841 Rocket 4.1 21:45:04 39° ENE 21:45:04 39° ENE 21:48:58 10° NNE
USA 215 4.0 21:44:53 27° ENE 21:47:47 41° NNE 21:53:48 10° NW
Meteor 1-21 4.2 21:42:54 10° N 21:48:41 70° E 21:49:52 55° SE
Tiangong 1 2.8 21:46:25 10° WNW 21:48:23 33° NW 21:48:23 33° NW
OTV 4 3.2 21:47:38 10° WSW 21:48:16 14° WSW 21:48:16 14° WSW
MetOp-B 4.0 21:49:20 57° SSE 21:50:27 80° ENE 21:55:49 10° N
Cosmos 1802 Rocket 4.0 21:47:44 25° S 21:51:39 89° ESE 21:58:08 10° N
Cosmos 1606 Rocket 3.5 21:54:42 73° NNE 21:54:42 73° NNE 21:58:46 10° N
Cosmos 2227 Rocket 3.9 21:51:44 10° NW 21:56:23 27° WSW 22:00:12 14° SSW
SL-08 R/B 4.4 21:55:42 52° SSE 21:57:07 69° E 22:03:16 10° NNE
Cosmos 2263 Rocket 4.0 21:54:27 10° N 21:58:00 17° NE 21:58:15 17° NE
RESURS DK-1 2.6 21:54:42 10° NNW 21:58:17 65° NNW 21:58:17 65° NNW
Cosmos 2322 Rocket 4.0 22:03:22 17° NE 22:03:22 17° NE 22:04:46 10° NE
Cosmos 2360 4.3 22:06:40 60° ENE 22:06:40 60° ENE 22:11:39 10° NNE
CZ-3C R/B 4.2 21:49:05 10° W 22:06:17 21° SW 22:09:52 17° SSW
SL-08 RB Rocket 4.3 22:07:25 48° NNE 22:07:25 48° NNE 22:11:05 10° N
Meteor 2-9 Rocket 4.2 22:10:25 65° ENE 22:10:25 65° ENE 22:15:20 10° NNE
Cosmos 2016 Rocket 4.0 22:07:40 41° SSW 22:09:58 79° W 22:16:11 10° N
Cosmos 1340 3.9 22:07:10 10° NNW 22:09:50 41° NW 22:09:50 41° NW
SL-19 R/B 4.0 22:06:12 10° NNE 22:11:43 88° ESE 22:12:00 81° S
Cosmos 2297 Rocket 3.8 22:07:20 10° NW 22:12:04 28° WSW 22:14:38 20° SW
Cosmos 2227 4.1 22:09:35 10° NNW 22:15:22 76° ENE 22:15:23 76° ENE
BREEZE-M DEB (TANK) 4.3 21:56:28 10° WNW 22:16:32 58° NNE 22:18:45 40° ENE
Cosmos 1726 Rocket 4.3 22:19:24 51° NW 22:19:24 51° NW 22:22:59 10° N
H-2A R/B 2.9 22:19:52 38° NE 22:19:52 38° NE 22:23:21 10° N
Terra 3.2 22:23:37 30° NNE 22:23:37 30° NNE 22:26:26 10° N
Cosmos 1937 Rocket 4.2 22:18:21 10° NNW 22:23:23 46° WSW 22:23:51 45° WSW
ASTEX 1 4.1 22:20:24 10° N 22:25:15 50° W 22:25:57 46° WSW
Cosmos 2098 Rocket 4.2 22:26:49 51° SSW 22:28:43 77° W 22:34:51 10° N
SPOT 1/Viking Rocket 4.1 22:37:52 54° W 22:37:52 54° W 22:42:40 10° NNW
Cosmos 1864 Rocket 4.5 22:37:11 70° WSW 22:37:35 73° W 22:43:43 10° N
Tsikada Rocket 4.0 22:33:46 10° N 22:40:11 76° W 22:40:26 75° WSW
Cosmos 967 Rocket 4.5 22:35:13 10° NW 22:41:20 72° W 22:41:20 72° W
H-2A R/B 4.4 22:43:40 16° W 22:43:40 16° W 22:46:15 10° NW
CZ-4B R/B 4.3 22:39:25 10° N 22:43:00 45° NNW 22:43:00 45° NNW
BREEZE-M DEB (TANK) 3.7 22:39:20 10° W 22:48:16 55° NNW 22:48:16 55° NNW
SL-16 R/B 3.4 22:57:20 33° NNE 22:57:20 33° NNE 23:00:22 10° NNE
Cosmos 1980 Rocket 4.0 23:08:26 13° WSW 23:12:34 27° NW 23:17:22 10° N
Cosmos 2360 Rocket 4.4 23:17:03 16° NE 23:17:03 16° NE 23:18:07 10° NE
Lacrosse 5 4.1 23:16:59 10° WNW 23:18:37 18° W 23:18:37 18° W
USA 215 3.8 23:32:14 49° WNW 23:32:14 49° WNW 23:37:04 10° NW
Cosmos 2263 Rocket 3.7 23:36:59 10° NNW 23:39:56 33° NNW 23:39:56 33° NNW
Cosmos 2322 Rocket 3.7 23:45:09 32° NNW 23:45:09 32° NNW 23:49:00 10° N
